Location: Narrabri
(30.3170°S, 149.7830°E)
Time: 17:22:21
(UTC+10:00)

Envisat - Visible Passes

Search period start: 24 September 2018 00:00
Search period end: 04 October 2018 00:00
Orbit: 764 x 766 km, 98.2° (Epoch: 23 September)

Date Brightness Start Highest point End Pass type
(mag) Time Alt. Az. Time Alt. Az. Time Alt. Az.
24 Sep 3.9 18:59:41 10° SE 19:03:55 26° E 19:08:07 10° NNE visible
24 Sep 4.9 20:38:30 10° SSW 20:42:48 28° WSW 20:47:04 10° NW visible
25 Sep 3.2 20:01:10 10° S 20:06:17 67° WSW 20:11:19 10° NNW visible
26 Sep 3.1 19:24:35 10° SSE 19:29:34 49° E 19:34:28 10° N visible
26 Sep 5.7 21:05:14 10° SSW 21:08:06 15° WSW 21:10:57 10° WNW visible
27 Sep 4.2 18:48:59 10° SE 18:52:41 20° E 18:56:20 10° NE visible
27 Sep 4.4 20:27:03 10° S 20:31:42 35° WSW 20:36:18 10° NW visible
28 Sep 2.9 19:49:57 10° SSE 19:55:07 87° WSW 20:00:13 10° NNW visible
29 Sep 3.4 19:13:37 10° SSE 19:18:22 37° E 19:23:03 10° NNE visible
29 Sep 5.4 20:53:26 10° SSW 20:57:03 20° WSW 21:00:37 10° WNW visible
30 Sep 4.5 18:38:32 10° ESE 18:41:26 15° E 18:44:18 10° NE visible
30 Sep 3.9 20:15:42 10° S 20:20:36 46° WSW 20:25:26 10° NW visible
01 Oct 2.8 19:38:49 10° SSE 19:43:57 72° ENE 19:49:01 10° N visible
01 Oct 6.1 21:21:40 10° WSW 21:22:16 10° WSW 21:22:53 10° WSW visible
02 Oct 3.8 19:02:44 10° SE 19:07:09 29° E 19:11:30 10° NNE visible
02 Oct 5.1 20:41:50 10° SSW 20:45:58 25° WSW 20:50:04 10° NW visible
03 Oct 4.7 18:28:42 10° ESE 18:30:09 11° E 18:31:37 10° ENE visible
03 Oct 3.4 20:04:24 10° S 20:09:28 60° WSW 20:14:28 10° NNW visible
